This demonstration page uses our WeatherBlox Daily Observations layout. Learn more.

Left ArrowRight Arrow

44.89941, -97.11507

Hourly Observations for December 3, 2022

Temp ( °F °C ) Dew Point ( °F °C ) Humidity (%) Winds ( mph kmh ) Pressure ( in mb ) Visibility ( mi km ) Precip ( " mm )
12:53 am 00:53 Partly Cloudy 1 -17.2 -5 -20.6 75 75 NW 17 28 30.35 1028 10 16 0.00 0.00
1:19 am 01:19 Partly Cloudy 1 -17.2 -4 -20 79 79 NW 16 26 30.47 1032 10 16 0.00 0.00
1:53 am 01:53 Mostly Clear 1 -17.2 -4 -20 79 79 WNW 15 24 30.39 1029 10 16 0.00 0.00
2:53 am 02:53 Clear 0 -17.8 -4 -20 83 83 NW 18 30 30.42 1030 10 16 0.00 0.00
3:53 am 03:53 Clear -1 -18.3 -5 -20.6 82 82 WNW 10 17 30.41 1030 10 16 0.00 0.00
4:53 am 04:53 Clear -1 -18.3 -5 -20.6 82 82 WNW 8 13 30.43 1031 10 16 0.00 0.00
5:53 am 05:53 Clear 0 -17.8 -5 -20.6 79 79 W 8 13 30.45 1031 10 16 0.00 0.00
6:53 am 06:53 Clear -4 -20 -7 -21.7 86 86 SW 7 11 30.46 1032 10 16 0.00 0.00
7:53 am 07:53 Sunny -2 -18.9 -6 -21.1 83 83 SW 8 13 30.48 1032 10 16 0.00 0.00
8:53 am 08:53 Sunny 2 -16.7 -2 -18.9 83 83 SW 13 20 30.49 1032 10 16 0.00 0.00
9:53 am 09:53 Sunny 6 -14.4 0 -17.8 75 75 SW 15 24 30.48 1032 10 16 0.00 0.00
10:53 am 10:53 Sunny 10 -12.2 1 -17.2 66 66 SSW 13 20 30.46 1032 10 16 0.00 0.00
11:53 am 11:53 Sunny 13 -10.6 4 -15.6 67 67 SSW 16 26 30.43 1031 10 16 0.00 0.00
12:53 pm 12:53 Sunny 15 -9.4 6 -14.4 67 67 S 15 24 30.37 1029 10 16 0.00 0.00
1:53 pm 13:53 Sunny 19 -7.2 9 -12.8 64 64 S 14 22 30.31 1027 10 16 0.00 0.00
2:53 pm 14:53 Sunny 23 -5 12 -11.1 62 62 S 13 20 30.29 1026 10 16 0.00 0.00
3:53 pm 15:53 Sunny 24 -4.4 13 -10.6 62 62 SSW 13 20 30.28 1026 10 16 0.00 0.00
4:53 pm 16:53 Clear 22 -5.6 13 -10.6 68 68 SSW 8 13 30.27 1025 10 16 0.00 0.00
5:53 pm 17:53 Clear 20 -6.7 13 -10.6 74 74 SW 8 13 30.27 1025 10 16 0.00 0.00
6:53 pm 18:53 Clear 16 -8.9 11 -11.7 80 80 SSW 9 15 30.27 1025 10 16 0.00 0.00
7:53 pm 19:53 Clear 15 -9.4 10 -12.2 80 80 SSE 6 9 30.25 1025 10 16 0.00 0.00
8:53 pm 20:53 Clear 10 -12.2 7 -13.9 87 87 S 7 11 30.27 1025 10 16 0.00 0.00
9:53 pm 21:53 Clear 14 -10 10 -12.2 84 84 Calm 30.25 1025 10 16 0.00 0.00
10:53 pm 22:53 Clear 10 -12.2 8 -13.3 91 91 Calm 30.25 1024 10 16 0.00 0.00
11:53 pm 23:53 Clear 10 -12.2 6 -14.4 84 84 Calm 30.23 1024 10 16 0.00 0.00

Powered by AerisWeather